Regional Weather Roundup
Issued by NWS

Home | Current Version | Previous Version | Text Only | Print | Product List | Glossary Off
Versions: 1 2 3 4 5 6 7 8 9 10 11 12 13 14 15 16 17 18 19 20 21 22 23 24 25 26 27 28 29 30 31 32 33 34 35 36 37 38 39 40 41 42 43 44 45 46 47 48 49 50

000
ASUS43 KOAX 280102
RWRNE

WEATHER ROUNDUP FOR NEBRASKA
NATIONAL WEATHER SERVICE OMAHA NE
800 PM CDT THU AUG 27 2015

NOTES: SATELLITE DATA IS BEING USED TO AUGMENT CLOUD COVER ABOVE
       12000 FEET.
       "FAIR" INDICATES FEW OR NO CLOUDS BELOW 12,000 FEET WITH NO
       SIGNIFICANT WEATHER AND/OR OBSTRUCTIONS TO VISIBILITY.

  * THESE STATIONS DO NOT REPORT WEATHER SUCH AS RAIN...SNOW OR FOG.

NEZ001>004-019>022-054>056-280200-
NEBRASKA PANHANDLE

CITY           SKY/WX    TMP DP  RH WIND       PRES   REMARKS
SCOTTSBLUFF    PTCLDY    76  56  49 N8        30.03F
ALLIANCE       PTCLDY    72  56  57 N9        30.02F
CHADRON        CLEAR     74  57  55 E6        29.99F
KIMBALL        MOCLDY    74  55  51 N5        30.08S
SIDNEY         PTCLDY    74  55  51 N12       30.04F
$$

NEZ057>060-069>072-079>082-280200-
SOUTHWEST NEBRASKA

CITY           SKY/WX    TMP DP  RH WIND       PRES   REMARKS
NORTH PLATTE   CLEAR     78  66  66 N14G22    29.86R
IMPERIAL       CLOUDY    81  61  50 N15       29.90R
LEXINGTON      PTCLDY    82  71  69 N16       29.81R
MCCOOK         PTCLDY    86  57  37 W8        29.82R
OGALLALA       MOCLDY    78  61  55 N17G26    29.94R
$$

NEZ005>010-023>029-035>040-094-280200-
NORTH CENTRAL NEBRASKA

CITY           SKY/WX    TMP DP  RH WIND       PRES   REMARKS
AINSWORTH      MOCLDY    75  68  79 N6        29.89F
BROKEN BOW     TSTM      72  67  84 E12G22    29.85S
O`NEILL        CLOUDY    76  72  88 NE9       29.88F
ORD            MOCLDY    76  70  82 E8        29.81F
$$

NEZ041-046>049-061>064-073>077-083>087-280200-
SOUTH CENTRAL NEBRASKA

CITY           SKY/WX    TMP DP  RH WIND       PRES   REMARKS
GRAND ISLAND   MOCLDY    78  67  68 S21G29    29.82F
AURORA         MOCLDY    78  65  62 S17G24    29.83S
HASTINGS       PTCLDY    78  66  66 S20G30    29.83S
HEBRON         CLOUDY    76  64  65 S13       29.88R
HOLDREGE       PTCLDY    78  66  65 SE13G24   29.83R
KEARNEY *      MOCLDY    79  64  61 S18       29.81R
YORK           MOCLDY    79  64  61 S16G24    29.84F
$$

NEZ011>018-030>034-042>045-280200-
NORTHEAST NEBRASKA

CITY           SKY/WX    TMP DP  RH WIND       PRES   REMARKS
NORFOLK        CLOUDY    78  66  66 E8        29.86S
ALBION         LGT RAIN  76  67  74 SE10      29.83F
BLAIR          MOCLDY    76  64  65 SE12      29.90F
COLUMBUS *     CLOUDY    75  64  69 E6        29.85S
FREMONT        CLOUDY    77  65  67 SE9       29.88F
TEKAMAH        MOCLDY    77  68  73 SE10      29.89F
WAYNE          CLOUDY    74  69  82 E10       29.91S
$$

NEZ050>053-065>068-078-088>093-280200-
SOUTHEAST NEBRASKA

CITY           SKY/WX    TMP DP  RH WIND       PRES   REMARKS
LINCOLN        CLOUDY    78  67  68 SE13      29.87F
OMAHA EPPLEY   MOCLDY    77  67  71 SE12      29.91R
BEATRICE       LGT RAIN  73  67  81 S13       29.89F
FALLS CITY     CLOUDY    74  66  76 SE6       29.90F
NEBRASKA CITY  CLOUDY    74  64  69 SE8       29.90F
PLATTSMOUTH    CLOUDY    73  65  75 E8        29.91R
$$

NEZ044-045-051>053-067-280200-
OMAHA AREA

CITY           SKY/WX    TMP DP  RH WIND       PRES   REMARKS
OMAHA EPPLEY   MOCLDY    77  67  71 SE12      29.91R
BLAIR          MOCLDY    76  64  65 SE12      29.90F
FREMONT        CLOUDY    77  65  67 SE9       29.88F
MILLARD        CLOUDY    77  67  71 SE8       29.89S
OFFUTT AFB     CLOUDY    74  67  78 E10       29.90S
PLATTSMOUTH    CLOUDY    73  65  75 E8        29.91R
WAHOO          CLOUDY    74  67  79 S12G22    29.87F
$$




USA.gov is the U.S. government's official web portal to all federal, state and local government web resources and services.